| time (UTC) | temp C | wind direction | speed KPH | gust KPH | rain 1hr cm | rain 24hr cm | rain mn cm | humidity % | barometer mb |
| 20260506013010 | 17 | 0.0 | 0.0 | 0.00 | 0.00 | 0.00 | 62 | 1027.0 | |
| 20260506011511 | 16 | 0.0 | 0.0 | 0.00 | 0.00 | 0.00 | 63 | 1027.1 | |
| 20260506010017 | 16 | 0.0 | 0.0 | 0.00 | 0.00 | 0.00 | 64 | 1027.0 | |
| 20260506004514 | 15 | 0.0 | 0.0 | 0.00 | 0.00 | 0.00 | 65 | 1026.9 | |
| 20260506003011 | 15 | 0.0 | 0.0 | 0.00 | 0.00 | 0.00 | 66 | 1026.8 | |
| 20260506001510 | 14 | 0.0 | 0.0 | 0.00 | 0.00 | 0.00 | 66 | 1026.6 | |
| 20260506000056 | 13 | 0.0 | 0.0 | 0.00 | 0.00 | 0.00 | 67 | 1026.5 | |
| 20260506000013 | 13 | 0.0 | 0.0 | 0.00 | 0.00 | 0.00 | 67 | 1026.5 | |
| 20260505234513 | 13 | 0.0 | 0.0 | 0.00 | 0.00 | 0.00 | 67 | 1026.4 | |
| 20260505233011 | 13 | 0.0 | 0.0 | 0.00 | 0.00 | 0.00 | 68 | 1026.2 | |
| 20260505231512 | 13 | 0.0 | 0.0 | 0.00 | 0.00 | 0.00 | 68 | 1025.9 | |
| 20260505230012 | 13 | 0.0 | 0.0 | 0.00 | 0.00 | 0.00 | 68 | 1025.7 | |
| 20260505224510 | 13 | 0.0 | 0.0 | 0.00 | 0.00 | 0.00 | 68 | 1025.6 | |
| 20260505223012 | 13 | 0.0 | 0.0 | 0.00 | 0.00 | 0.00 | 68 | 1025.5 | |
| 20260505221514 | 13 | 0.0 | 0.0 | 0.00 | 0.00 | 0.00 | 68 | 1025.3 | |
| 20260505220011 | 13 | 0.0 | 0.0 | 0.00 | 0.00 | 0.00 | 67 | 1025.2 | |
| 20260505214513 | 13 | 0.0 | 0.0 | 0.00 | 0.00 | 0.00 | 67 | 1025.2 | |
| 20260505213010 | 13 | 0.0 | 0.0 | 0.00 | 0.00 | 0.00 | 67 | 1025.0 | |
| 20260505211548 | 13 | 0.0 | 0.0 | 0.00 | 0.00 | 0.00 | 67 | 1024.8 | |
| 20260505211512 | 13 | 0.0 | 0.0 | 0.00 | 0.00 | 0.00 | 67 | 1024.8 | |
| 20260505210011 | 13 | 0.0 | 0.0 | 0.00 | 0.00 | 0.00 | 67 | 1024.8 | |
| 20260505204514 | 13 | 0.0 | 0.0 | 0.00 | 0.00 | 0.00 | 67 | 1024.6 | |
| 20260505203011 | 13 | 0.0 | 0.0 | 0.00 | 0.00 | 0.00 | 67 | 1024.6 | |
| 20260505201510 | 14 | 0.0 | 0.0 | 0.00 | 0.00 | 0.00 | 66 | 1024.4 | |
| 20260505200010 | 14 | 0.0 | 0.0 | 0.00 | 0.00 | 0.00 | 66 | 1024.4 | |
| 20260505194510 | 14 | 0.0 | 0.0 | 0.00 | 0.00 | 0.00 | 66 | 1024.3 | |
| 20260505193013 | 15 | 0.0 | 0.0 | 0.00 | 0.00 | 0.00 | 65 | 1024.3 | |
| 20260505191916 | 15 | 0.0 | 0.0 | 0.00 | 0.00 | 0.00 | 65 | 1024.3 | |
| 20260505191510 | 15 | 0.0 | 0.0 | 0.00 | 0.00 | 0.00 | 65 | 1024.3 | |
| 20260505190010 | 15 | 0.0 | 0.0 | 0.00 | 0.00 | 0.00 | 65 | 1024.1 | |
| 20260505184515 | 15 | 0.0 | 0.0 | 0.00 | 0.00 | 0.00 | 64 | 1024.1 | |
| 20260505183010 | 15 | 0.0 | 0.0 | 0.00 | 0.00 | 0.00 | 64 | 1024.2 | |
| 20260505181513 | 15 | 0.0 | 0.0 | 0.00 | 0.00 | 0.00 | 63 | 1024.3 | |
| 20260505180010 | 15 | 0.0 | 0.0 | 0.00 | 0.00 | 0.00 | 63 | 1024.2 | |
| 20260505174512 | 15 | 0.0 | 0.0 | 0.00 | 0.00 | 0.00 | 63 | 1024.2 | |
| 20260505173013 | 15 | 0.0 | 0.0 | 0.00 | 0.00 | 0.00 | 63 | 1024.1 | |
| 20260505171510 | 15 | 0.0 | 0.0 | 0.00 | 0.00 | 0.00 | 63 | 1024.1 | |
| 20260505170011 | 15 | 0.0 | 0.0 | 0.00 | 0.00 | 0.00 | 63 | 1024.0 | |
| 20260505164511 | 15 | 0.0 | 0.0 | 0.00 | 0.00 | 0.00 | 62 | 1023.9 | |
| 20260505163011 | 15 | 0.0 | 0.0 | 0.00 | 0.00 | 0.00 | 62 | 1023.8 | |
| 20260505161510 | 15 | 0.0 | 0.0 | 0.00 | 0.00 | 0.00 | 62 | 1023.7 | |
| 20260505153010 | 15 | 0.0 | 0.0 | 0.00 | 0.00 | 0.00 | 62 | 1023.8 | |
| 20260505151510 | 15 | 0.0 | 0.0 | 0.00 | 0.00 | 0.00 | 63 | 1023.7 | |
| 20260505124511 | 17 | 0.0 | 0.0 | 0.00 | 0.00 | 0.00 | 62 | 1023.5 | |
| 20260505123014 | 18 | 0.0 | 0.0 | 0.00 | 0.00 | 0.00 | 62 | 1023.5 | |
| 20260505121511 | 18 | 0.0 | 0.0 | 0.00 | 0.00 | 0.00 | 61 | 1023.4 | |
| 20260505120013 | 18 | 0.0 | 0.0 | 0.00 | 0.00 | 0.00 | 61 | 1023.4 | |
| 20260505114511 | 18 | 0.0 | 0.0 | 0.00 | 0.00 | 0.00 | 61 | 1023.4 | |
| 20260505113012 | 18 | 0.0 | 0.0 | 0.00 | 0.00 | 0.00 | 60 | 1023.3 | |
| 20260505111514 | 19 | 0.0 | 0.0 | 0.00 | 0.00 | 0.00 | 60 | 1023.3 | |
| 20260505101510 | 20 | 0.0 | 0.0 | 0.00 | 0.00 | 0.00 | 58 | 1022.5 | |
| 20260505100012 | 21 | 0.0 | 0.0 | 0.00 | 0.00 | 0.00 | 58 | 1022.4 | |
| 20260505094511 | 21 | 0.0 | 0.0 | 0.00 | 0.00 | 0.00 | 57 | 1022.3 | |
| 20260505093010 | 21 | 0.0 | 0.0 | 0.00 | 0.00 | 0.00 | 56 | 1022.1 | |
| 20260505091510 | 22 | 0.0 | 0.0 | 0.00 | 0.00 | 0.00 | 54 | 1022.0 | |
| 20260505090012 | 22 | 0.0 | 0.0 | 0.00 | 0.00 | 0.00 | 52 | 1021.9 | |
| 20260505084512 | 22 | 0.0 | 0.0 | 0.00 | 0.00 | 0.00 | 51 | 1021.8 | |
| 20260505083011 | 23 | 0.0 | 0.0 | 0.00 | 0.00 | 0.00 | 49 | 1021.7 | |
| 20260505081511 | 23 | 0.0 | 0.0 | 0.00 | 0.00 | 0.00 | 47 | 1021.7 | |
| 20260505080011 | 23 | 0.0 | 0.0 | 0.00 | 0.00 | 0.00 | 43 | 1021.7 | |
| 20260505074511 | 24 | 0.0 | 0.0 | 0.00 | 0.00 | 0.00 | 43 | 1021.6 | |
| 20260505073011 | 24 | 0.0 | 0.0 | 0.00 | 0.00 | 0.00 | 43 | 1021.6 | |
| 20260505071512 | 24 | 0.0 | 0.0 | 0.00 | 0.00 | 0.00 | 42 | 1021.5 | |
| 20260505070010 | 24 | 0.0 | 0.0 | 0.00 | 0.00 | 0.00 | 42 | 1021.6 | |
| 20260505064511 | 24 | 0.0 | 0.0 | 0.00 | 0.00 | 0.00 | 42 | 1021.6 | |
| 20260505063014 | 24 | 0.0 | 0.0 | 0.00 | 0.00 | 0.00 | 43 | 1021.6 | |
| 20260505061512 | 24 | 0.0 | 0.0 | 0.00 | 0.00 | 0.00 | 42 | 1021.6 | |
| 20260505060014 | 24 | 0.0 | 0.0 | 0.00 | 0.00 | 0.00 | 43 | 1021.7 | |
| 20260505054510 | 24 | 0.0 | 0.0 | 0.00 | 0.00 | 0.00 | 42 | 1021.8 | |
| 20260505053011 | 25 | 0.0 | 0.0 | 0.00 | 0.00 | 0.00 | 42 | 1021.8 | |
| 20260505051514 | 24 | 0.0 | 0.0 | 0.00 | 0.00 | 0.00 | 43 | 1021.9 | |
| 20260505041511 | 23 | 0.0 | 0.0 | 0.00 | 0.00 | 0.00 | 46 | 1022.8 | |
| 20260505040013 | 23 | 0.0 | 0.0 | 0.00 | 0.00 | 0.00 | 48 | 1023.0 | |
| 20260505034510 | 22 | 0.0 | 0.0 | 0.00 | 0.00 | 0.00 | 49 | 1023.3 | |
| 20260505033009 | 22 | 0.0 | 0.0 | 0.00 | 0.00 | 0.00 | 50 | 1023.5 | |
| 20260505031510 | 21 | 0.0 | 0.0 | 0.00 | 0.00 | 0.00 | 51 | 1023.7 | |
| 20260505030011 | 21 | 0.0 | 0.0 | 0.00 | 0.00 | 0.00 | 53 | 1023.8 | |
| 20260505024512 | 20 | 0.0 | 0.0 | 0.00 | 0.00 | 0.00 | 54 | 1023.9 | |
| 20260505023011 | 20 | 0.0 | 0.0 | 0.00 | 0.00 | 0.00 | 55 | 1024.0 | |
| 20260505021510 | 20 | 0.0 | 0.0 | 0.00 | 0.00 | 0.00 | 56 | 1024.0 | |
| 20260505020010 | 18 | 0.0 | 0.0 | 0.00 | 0.00 | 0.00 | 54 | 1024.1 | |
| 20260505014510 | 18 | 0.0 | 0.0 | 0.00 | 0.00 | 0.00 | 57 | 1024.1 |